Year,Month,Day,Hour,Minute,Value (Times are PST for windgust in km/hr)
2017,04,07,00,00,1.60
2017,04,07,00,05,1.60
2017,04,07,00,06,1.60
2017,04,07,00,07,3.20
2017,04,07,00,08,3.20
2017,04,07,00,09,3.20
2017,04,07,00,10,1.60
2017,04,07,00,11,1.60
2017,04,07,00,13,1.60
2017,04,07,00,14,3.20
2017,04,07,00,15,1.60
2017,04,07,00,16,1.60
2017,04,07,00,17,1.60
2017,04,07,00,20,1.60
2017,04,07,00,21,1.60
2017,04,07,00,22,1.60
2017,04,07,00,23,1.60
2017,04,07,00,24,1.60
2017,04,07,00,25,1.60
2017,04,07,00,26,1.60
2017,04,07,00,27,3.20
2017,04,07,00,28,1.60
2017,04,07,00,29,1.60
2017,04,07,00,30,3.20
2017,04,07,00,31,1.60
2017,04,07,00,33,1.60
2017,04,07,00,41,1.60
2017,04,07,00,46,1.60
2017,04,07,01,11,3.20
2017,04,07,01,12,1.60
2017,04,07,01,13,1.60
2017,04,07,01,14,1.60
2017,04,07,01,15,3.20
2017,04,07,01,16,3.20
2017,04,07,01,17,3.20
2017,04,07,01,18,1.60
2017,04,07,01,19,1.60
2017,04,07,01,42,1.60
2017,04,07,01,43,1.60
2017,04,07,01,44,1.60
2017,04,07,01,45,1.60
2017,04,07,01,46,1.60
2017,04,07,01,47,1.60
2017,04,07,01,48,1.60
2017,04,07,01,49,3.20
2017,04,07,01,50,1.60
2017,04,07,01,51,3.20
2017,04,07,01,52,3.20
2017,04,07,01,53,1.60
2017,04,07,01,54,3.20
2017,04,07,01,55,1.60
2017,04,07,01,56,3.20
2017,04,07,01,57,3.20
2017,04,07,01,58,3.20
2017,04,07,02,00,1.60
2017,04,07,02,01,1.60
2017,04,07,02,02,1.60
2017,04,07,02,03,3.20
2017,04,07,02,04,3.20
2017,04,07,02,05,3.20
2017,04,07,02,06,3.20
2017,04,07,02,07,1.60
2017,04,07,02,10,1.60
2017,04,07,02,11,1.60
2017,04,07,02,12,4.80
2017,04,07,02,13,3.20
2017,04,07,02,14,1.60
2017,04,07,02,15,3.20
2017,04,07,02,16,4.80
2017,04,07,02,17,1.60
2017,04,07,02,18,3.20
2017,04,07,02,19,1.60
2017,04,07,02,20,1.60
2017,04,07,02,21,1.60
2017,04,07,02,22,1.60
2017,04,07,02,23,1.60
2017,04,07,02,24,3.20
2017,04,07,02,25,3.20
2017,04,07,02,26,1.60
2017,04,07,02,27,1.60
2017,04,07,02,28,1.60
2017,04,07,02,29,1.60
2017,04,07,02,30,1.60
2017,04,07,02,31,1.60
2017,04,07,02,32,3.20
2017,04,07,02,33,3.20
2017,04,07,02,34,3.20
2017,04,07,02,35,3.20
2017,04,07,02,36,3.20
2017,04,07,02,37,3.20
2017,04,07,02,38,1.60
2017,04,07,02,39,1.60
2017,04,07,02,40,3.20
2017,04,07,02,41,1.60
2017,04,07,02,42,3.20
2017,04,07,02,43,3.20
2017,04,07,02,44,3.20
2017,04,07,02,45,1.60
2017,04,07,02,46,1.60
2017,04,07,02,47,1.60
2017,04,07,02,48,1.60
2017,04,07,02,50,3.20
2017,04,07,02,52,3.20
2017,04,07,02,53,3.20
2017,04,07,02,54,3.20
2017,04,07,02,55,3.20
2017,04,07,02,56,1.60
2017,04,07,02,57,1.60
2017,04,07,02,58,1.60
2017,04,07,02,59,3.20
2017,04,07,03,00,3.20
2017,04,07,03,01,4.80
2017,04,07,03,02,4.80
2017,04,07,03,03,3.20
2017,04,07,03,06,1.60
2017,04,07,03,07,1.60
2017,04,07,03,08,1.60
2017,04,07,03,09,3.20
2017,04,07,03,10,3.20
2017,04,07,03,11,1.60
2017,04,07,03,12,3.20
2017,04,07,03,13,1.60
2017,04,07,03,14,1.60
2017,04,07,03,15,1.60
2017,04,07,03,16,1.60
2017,04,07,03,17,1.60
2017,04,07,03,19,1.60
2017,04,07,03,20,1.60
2017,04,07,03,21,1.60
2017,04,07,03,23,1.60
2017,04,07,03,24,4.80
2017,04,07,03,25,1.60
2017,04,07,03,26,1.60
2017,04,07,03,27,1.60
2017,04,07,03,28,4.80
2017,04,07,03,29,3.20
2017,04,07,03,30,1.60
2017,04,07,03,31,1.60
2017,04,07,03,32,1.60
2017,04,07,03,35,3.20
2017,04,07,03,36,9.60
2017,04,07,03,37,3.20
2017,04,07,03,38,3.20
2017,04,07,03,39,1.60
2017,04,07,03,40,3.20
2017,04,07,03,41,1.60
2017,04,07,03,42,1.60
2017,04,07,03,43,3.20
2017,04,07,03,44,3.20
2017,04,07,03,45,1.60
2017,04,07,03,46,1.60
2017,04,07,03,50,1.60
2017,04,07,03,51,1.60
2017,04,07,03,52,1.60
2017,04,07,03,53,3.20
2017,04,07,03,54,3.20
2017,04,07,03,55,1.60
2017,04,07,03,56,4.80
2017,04,07,03,57,3.20
2017,04,07,03,58,1.60
2017,04,07,03,59,1.60
2017,04,07,04,00,1.60
2017,04,07,04,01,3.20
2017,04,07,04,02,4.80
2017,04,07,04,03,4.80
2017,04,07,04,04,3.20
2017,04,07,04,05,3.20
2017,04,07,04,06,1.60
2017,04,07,04,07,1.60
2017,04,07,04,08,1.60
2017,04,07,04,11,1.60
2017,04,07,04,13,3.20
2017,04,07,04,14,1.60
2017,04,07,04,15,4.80
2017,04,07,04,16,3.20
2017,04,07,04,17,1.60
2017,04,07,04,18,3.20
2017,04,07,04,19,3.20
2017,04,07,04,20,1.60
2017,04,07,04,21,3.20
2017,04,07,04,22,3.20
2017,04,07,04,23,3.20
2017,04,07,04,24,1.60
2017,04,07,04,25,1.60
2017,04,07,04,29,1.60
2017,04,07,04,30,1.60
2017,04,07,04,31,4.80
2017,04,07,04,32,1.60
2017,04,07,04,33,1.60
2017,04,07,04,34,6.40
2017,04,07,04,35,6.40
2017,04,07,04,36,3.20
2017,04,07,04,37,6.40
2017,04,07,04,38,3.20
2017,04,07,04,39,1.60
2017,04,07,04,40,1.60
2017,04,07,04,41,1.60
2017,04,07,04,42,3.20
2017,04,07,04,43,3.20
2017,04,07,04,44,3.20
2017,04,07,04,45,3.20
2017,04,07,04,46,4.80
2017,04,07,04,47,4.80
2017,04,07,04,48,4.80
2017,04,07,04,49,4.80
2017,04,07,04,50,4.80
2017,04,07,04,51,3.20
2017,04,07,04,52,3.20
2017,04,07,04,53,9.60
2017,04,07,04,54,6.40
2017,04,07,04,55,6.40
2017,04,07,04,56,4.80
2017,04,07,04,57,8.10
2017,04,07,04,58,11.30
2017,04,07,04,59,6.40
2017,04,07,05,00,3.20
2017,04,07,05,01,3.20
2017,04,07,05,02,3.20
2017,04,07,05,03,3.20
2017,04,07,05,04,6.40
2017,04,07,05,05,4.80
2017,04,07,05,06,3.20
2017,04,07,05,07,3.20
2017,04,07,05,08,3.20
2017,04,07,05,09,3.20
2017,04,07,05,10,6.40
2017,04,07,05,11,6.40
2017,04,07,05,12,3.20
2017,04,07,05,13,3.20
2017,04,07,05,14,4.80
2017,04,07,05,15,4.80
2017,04,07,05,16,4.80
2017,04,07,05,17,3.20
2017,04,07,05,18,4.80
2017,04,07,05,19,1.60
2017,04,07,05,20,1.60
2017,04,07,05,21,1.60
2017,04,07,05,22,1.60
2017,04,07,05,23,1.60
2017,04,07,05,24,1.60
2017,04,07,05,25,1.60
2017,04,07,05,26,1.60
2017,04,07,05,27,1.60
2017,04,07,05,31,1.60
2017,04,07,05,32,3.20
2017,04,07,05,33,1.60
2017,04,07,05,34,1.60
2017,04,07,05,35,1.60
2017,04,07,05,52,1.60
2017,04,07,06,03,1.60
2017,04,07,06,04,1.60
2017,04,07,06,05,1.60
2017,04,07,06,06,1.60
2017,04,07,06,07,3.20
2017,04,07,06,08,3.20
2017,04,07,06,09,1.60
2017,04,07,06,16,1.60
2017,04,07,06,17,1.60
2017,04,07,06,18,1.60
2017,04,07,06,19,1.60
2017,04,07,06,20,1.60
2017,04,07,06,21,1.60
2017,04,07,06,25,1.60
2017,04,07,06,26,1.60
2017,04,07,06,27,1.60
2017,04,07,06,28,1.60
2017,04,07,06,29,1.60
2017,04,07,06,50,1.60
2017,04,07,07,22,1.60
2017,04,07,07,23,1.60
2017,04,07,07,24,1.60
2017,04,07,07,27,1.60
2017,04,07,07,44,1.60
2017,04,07,07,49,1.60
2017,04,07,07,50,1.60
2017,04,07,07,51,1.60
2017,04,07,08,08,1.60
2017,04,07,08,09,1.60
2017,04,07,08,19,3.20
2017,04,07,08,20,1.60
2017,04,07,08,21,1.60
2017,04,07,08,22,3.20
2017,04,07,08,23,1.60
2017,04,07,08,25,3.20
2017,04,07,08,26,1.60
2017,04,07,08,27,1.60
2017,04,07,08,28,1.60
2017,04,07,08,30,1.60
2017,04,07,08,34,3.20
2017,04,07,08,35,3.20
2017,04,07,08,36,1.60
2017,04,07,08,37,1.60
2017,04,07,08,38,1.60
2017,04,07,08,39,1.60
2017,04,07,08,40,1.60
2017,04,07,08,48,1.60
2017,04,07,08,49,1.60
2017,04,07,08,50,3.20
2017,04,07,08,51,1.60
2017,04,07,08,52,1.60
2017,04,07,08,53,3.20
2017,04,07,08,54,1.60
2017,04,07,08,55,1.60
2017,04,07,08,56,1.60
2017,04,07,08,57,1.60
2017,04,07,08,58,3.20
2017,04,07,08,59,3.20
2017,04,07,09,00,3.20
2017,04,07,09,01,3.20
2017,04,07,09,02,1.60
2017,04,07,09,03,1.60
2017,04,07,09,06,3.20
2017,04,07,09,07,3.20
2017,04,07,09,08,4.80
2017,04,07,09,09,1.60
2017,04,07,09,10,1.60
2017,04,07,09,11,3.20
2017,04,07,09,15,1.60
2017,04,07,09,16,1.60
2017,04,07,09,17,1.60
2017,04,07,09,18,1.60
2017,04,07,09,19,1.60
2017,04,07,09,21,1.60
2017,04,07,09,25,3.20
2017,04,07,09,26,1.60
2017,04,07,09,27,3.20
2017,04,07,09,28,1.60
2017,04,07,09,29,1.60
2017,04,07,09,31,1.60
2017,04,07,09,32,1.60
2017,04,07,09,33,1.60
2017,04,07,09,34,1.60
2017,04,07,09,35,1.60
2017,04,07,09,36,3.20
2017,04,07,09,37,3.20
2017,04,07,09,38,3.20
2017,04,07,09,39,3.20
2017,04,07,09,40,1.60
2017,04,07,09,41,3.20
2017,04,07,09,42,1.60
2017,04,07,09,43,1.60
2017,04,07,09,45,1.60
2017,04,07,09,46,1.60
2017,04,07,09,47,1.60
2017,04,07,10,02,1.60
2017,04,07,10,28,1.60
2017,04,07,10,29,1.60
2017,04,07,10,30,1.60
2017,04,07,10,31,1.60
2017,04,07,10,43,3.20
2017,04,07,10,44,1.60
2017,04,07,10,53,1.60
2017,04,07,10,59,1.60
2017,04,07,11,00,1.60
2017,04,07,11,01,1.60
2017,04,07,11,02,1.60
2017,04,07,11,06,1.60
2017,04,07,11,07,1.60
2017,04,07,11,10,1.60
2017,04,07,11,11,1.60
2017,04,07,11,14,1.60
2017,04,07,11,16,3.20
2017,04,07,11,17,3.20
2017,04,07,11,18,1.60
2017,04,07,11,19,3.20
2017,04,07,11,20,3.20
2017,04,07,11,21,3.20
2017,04,07,11,22,1.60
2017,04,07,11,23,1.60
2017,04,07,11,26,1.60
2017,04,07,11,27,1.60
2017,04,07,11,28,1.60
2017,04,07,11,29,1.60
2017,04,07,11,31,3.20
2017,04,07,11,32,3.20
2017,04,07,11,33,1.60
2017,04,07,11,34,1.60
2017,04,07,11,35,3.20
2017,04,07,11,36,3.20
2017,04,07,11,37,3.20
2017,04,07,11,38,3.20
2017,04,07,11,39,3.20
2017,04,07,11,40,3.20
2017,04,07,11,41,3.20
2017,04,07,11,42,1.60
2017,04,07,11,43,3.20
2017,04,07,11,44,3.20
2017,04,07,11,45,1.60
2017,04,07,11,46,1.60
2017,04,07,11,47,3.20
2017,04,07,11,48,3.20
2017,04,07,11,49,3.20
2017,04,07,11,50,3.20
2017,04,07,11,51,1.60
2017,04,07,11,52,1.60
2017,04,07,11,53,1.60
2017,04,07,11,55,1.60
2017,04,07,11,56,1.60
2017,04,07,11,58,1.60
2017,04,07,11,59,1.60
2017,04,07,12,00,3.20
2017,04,07,12,01,3.20
2017,04,07,12,02,1.60
2017,04,07,12,03,3.20
2017,04,07,12,04,3.20
2017,04,07,12,05,3.20
2017,04,07,12,06,3.20
2017,04,07,12,07,3.20
2017,04,07,12,08,1.60
2017,04,07,12,09,1.60
2017,04,07,12,10,1.60
2017,04,07,12,11,1.60
2017,04,07,12,12,1.60
2017,04,07,12,13,1.60
2017,04,07,12,14,1.60
2017,04,07,12,15,3.20
2017,04,07,12,16,3.20
2017,04,07,12,17,3.20
2017,04,07,12,18,3.20
2017,04,07,12,19,3.20
2017,04,07,12,20,3.20
2017,04,07,12,21,3.20
2017,04,07,12,22,1.60
2017,04,07,12,23,1.60
2017,04,07,12,24,3.20
2017,04,07,12,25,1.60
2017,04,07,12,27,3.20
2017,04,07,12,28,3.20
2017,04,07,12,29,3.20
2017,04,07,12,30,1.60
2017,04,07,12,31,1.60
2017,04,07,12,32,1.60
2017,04,07,12,33,3.20
2017,04,07,12,34,3.20
2017,04,07,12,35,3.20
2017,04,07,12,36,1.60
2017,04,07,12,37,3.20
2017,04,07,12,38,3.20
2017,04,07,12,39,1.60
2017,04,07,12,40,1.60
2017,04,07,12,41,3.20
2017,04,07,12,42,3.20
2017,04,07,12,43,4.80
2017,04,07,12,44,3.20
2017,04,07,12,45,3.20
2017,04,07,12,46,1.60
2017,04,07,12,47,3.20
2017,04,07,12,48,3.20
2017,04,07,12,49,3.20
2017,04,07,12,50,3.20
2017,04,07,12,51,3.20
2017,04,07,12,52,1.60
2017,04,07,12,53,3.20
2017,04,07,12,54,3.20
2017,04,07,12,55,3.20
2017,04,07,12,56,3.20
2017,04,07,12,57,1.60
2017,04,07,12,58,1.60
2017,04,07,12,59,1.60
2017,04,07,13,00,3.20
2017,04,07,13,01,4.80
2017,04,07,13,02,4.80
2017,04,07,13,03,3.20
2017,04,07,13,04,3.20
2017,04,07,13,05,4.80
2017,04,07,13,06,3.20
2017,04,07,13,07,3.20
2017,04,07,13,08,3.20
2017,04,07,13,09,4.80
2017,04,07,13,10,3.20
2017,04,07,13,11,4.80
2017,04,07,13,12,1.60
2017,04,07,13,13,3.20
2017,04,07,13,14,3.20
2017,04,07,13,15,4.80
2017,04,07,13,16,4.80
2017,04,07,13,17,3.20
2017,04,07,13,18,3.20
2017,04,07,13,19,3.20
2017,04,07,13,20,3.20
2017,04,07,13,21,1.60
2017,04,07,13,22,3.20
2017,04,07,13,23,1.60
2017,04,07,13,24,1.60
2017,04,07,13,25,1.60
2017,04,07,13,27,1.60
2017,04,07,13,28,1.60
2017,04,07,13,32,1.60
2017,04,07,13,33,3.20
2017,04,07,13,34,1.60
2017,04,07,13,35,1.60
2017,04,07,13,36,1.60
2017,04,07,13,37,3.20
2017,04,07,13,38,3.20
2017,04,07,13,39,1.60
2017,04,07,13,40,1.60
2017,04,07,13,41,3.20
2017,04,07,13,42,3.20
2017,04,07,13,43,3.20
2017,04,07,13,44,3.20
2017,04,07,13,45,3.20
2017,04,07,13,46,3.20
2017,04,07,13,47,3.20
2017,04,07,13,48,3.20
2017,04,07,13,49,3.20
2017,04,07,13,50,3.20
2017,04,07,13,51,1.60
2017,04,07,13,52,3.20
2017,04,07,13,53,3.20
2017,04,07,13,54,3.20
2017,04,07,13,55,4.80
2017,04,07,13,56,4.80
2017,04,07,13,57,3.20
2017,04,07,14,02,1.60
2017,04,07,14,03,3.20
2017,04,07,14,04,1.60
2017,04,07,14,05,1.60
2017,04,07,14,06,1.60
2017,04,07,14,07,1.60
2017,04,07,14,08,1.60
2017,04,07,14,09,1.60
2017,04,07,14,10,3.20
2017,04,07,14,11,3.20
2017,04,07,14,12,3.20
2017,04,07,14,13,1.60
2017,04,07,14,14,3.20
2017,04,07,14,15,3.20
2017,04,07,14,16,3.20
2017,04,07,14,17,3.20
2017,04,07,14,18,3.20
2017,04,07,14,19,4.80
2017,04,07,14,20,3.20
2017,04,07,14,21,1.60
2017,04,07,14,24,1.60
2017,04,07,14,25,4.80
2017,04,07,14,26,3.20
2017,04,07,14,27,3.20
2017,04,07,14,28,4.80
2017,04,07,14,29,3.20
2017,04,07,14,30,3.20
2017,04,07,14,31,1.60
2017,04,07,14,32,1.60
2017,04,07,14,33,1.60
2017,04,07,14,34,1.60
2017,04,07,14,35,1.60
2017,04,07,14,36,3.20
2017,04,07,14,37,3.20
2017,04,07,14,38,1.60
2017,04,07,14,39,1.60
2017,04,07,14,40,1.60
2017,04,07,14,41,3.20
2017,04,07,14,42,3.20
2017,04,07,14,43,1.60
2017,04,07,14,44,3.20
2017,04,07,14,45,3.20
2017,04,07,14,46,3.20
2017,04,07,14,47,1.60
2017,04,07,14,48,1.60
2017,04,07,14,49,1.60
2017,04,07,14,50,3.20
2017,04,07,14,51,1.60
2017,04,07,14,52,3.20
2017,04,07,14,53,3.20
2017,04,07,14,54,3.20
2017,04,07,14,55,3.20
2017,04,07,14,56,3.20
2017,04,07,14,57,3.20
2017,04,07,14,58,4.80
2017,04,07,14,59,3.20
2017,04,07,15,00,4.80
2017,04,07,15,01,6.40
2017,04,07,15,02,4.80
2017,04,07,15,03,4.80
2017,04,07,15,04,3.20
2017,04,07,15,05,1.60
2017,04,07,15,06,1.60
2017,04,07,15,07,6.40
2017,04,07,15,08,4.80
2017,04,07,15,09,4.80
2017,04,07,15,10,3.20
2017,04,07,15,11,1.60
2017,04,07,15,12,6.40
2017,04,07,15,13,4.80
2017,04,07,15,14,3.20
2017,04,07,15,15,3.20
2017,04,07,15,16,3.20
2017,04,07,15,17,3.20
2017,04,07,15,18,4.80
2017,04,07,15,19,4.80
2017,04,07,15,20,4.80
2017,04,07,15,21,1.60
2017,04,07,15,22,3.20
2017,04,07,15,23,3.20
2017,04,07,15,24,3.20
2017,04,07,15,25,4.80
2017,04,07,15,26,3.20
2017,04,07,15,27,8.10
2017,04,07,15,28,4.80
2017,04,07,15,29,4.80
2017,04,07,15,30,6.40
2017,04,07,15,31,3.20
2017,04,07,15,32,3.20
2017,04,07,15,33,3.20
2017,04,07,15,34,3.20
2017,04,07,15,35,8.10
2017,04,07,15,36,6.40
2017,04,07,15,37,4.80
2017,04,07,15,38,3.20
2017,04,07,15,39,3.20
2017,04,07,15,40,3.20
2017,04,07,15,41,3.20
2017,04,07,15,42,4.80
2017,04,07,15,43,3.20
2017,04,07,15,44,4.80
2017,04,07,15,45,4.80
2017,04,07,15,46,3.20
2017,04,07,15,47,6.40
2017,04,07,15,48,6.40
2017,04,07,15,49,4.80
2017,04,07,15,50,11.30
2017,04,07,15,51,9.60
2017,04,07,15,52,12.90
2017,04,07,15,53,6.40
2017,04,07,15,54,6.40
2017,04,07,15,55,8.10
2017,04,07,15,56,6.40
2017,04,07,15,57,6.40
2017,04,07,15,58,4.80
2017,04,07,15,59,4.80
2017,04,07,16,00,9.60
2017,04,07,16,01,6.40
2017,04,07,16,02,3.20
2017,04,07,16,03,9.60
2017,04,07,16,04,12.90
2017,04,07,16,05,11.30
2017,04,07,16,06,14.50
2017,04,07,16,07,14.50
2017,04,07,16,08,8.10
2017,04,07,16,09,17.70
2017,04,07,16,10,14.50
2017,04,07,16,11,14.50
2017,04,07,16,12,4.80
2017,04,07,16,13,14.50
2017,04,07,16,14,9.60
2017,04,07,16,15,8.10
2017,04,07,16,16,14.50
2017,04,07,16,17,11.30
2017,04,07,16,18,14.50
2017,04,07,16,19,6.40
2017,04,07,16,20,9.60
2017,04,07,16,21,9.60
2017,04,07,16,22,8.10
2017,04,07,16,23,17.70
2017,04,07,16,24,11.30
2017,04,07,16,25,8.10
2017,04,07,16,26,16.10
2017,04,07,16,27,12.90
2017,04,07,16,28,17.70
2017,04,07,16,29,9.60
2017,04,07,16,30,11.30
2017,04,07,16,31,8.10
2017,04,07,16,32,8.10
2017,04,07,16,33,14.50
2017,04,07,16,34,12.90
2017,04,07,16,35,8.10
2017,04,07,16,36,6.40
2017,04,07,16,37,25.70
2017,04,07,16,38,14.50
2017,04,07,16,39,17.70
2017,04,07,16,40,11.30
2017,04,07,16,41,12.90
2017,04,07,16,42,25.70
2017,04,07,16,43,20.90
2017,04,07,16,44,19.30
2017,04,07,16,45,19.30
2017,04,07,16,46,12.90
2017,04,07,16,47,11.30
2017,04,07,16,48,8.10
2017,04,07,16,49,24.20
2017,04,07,16,50,22.50
2017,04,07,16,51,22.50
2017,04,07,16,52,19.30
2017,04,07,16,53,11.30
2017,04,07,16,54,16.10
2017,04,07,16,55,9.60
2017,04,07,16,56,16.10
2017,04,07,16,57,16.10
2017,04,07,16,58,24.20
2017,04,07,16,59,17.70
2017,04,07,17,00,17.70
2017,04,07,17,01,16.10
2017,04,07,17,02,27.40
2017,04,07,17,03,25.70
2017,04,07,17,04,25.70
2017,04,07,17,05,9.60
2017,04,07,17,06,24.20
2017,04,07,17,07,11.30
2017,04,07,17,08,12.90
2017,04,07,17,09,19.30
2017,04,07,17,10,12.90
2017,04,07,17,11,19.30
2017,04,07,17,12,16.10
2017,04,07,17,13,17.70
2017,04,07,17,14,14.50
2017,04,07,17,15,14.50
2017,04,07,17,16,14.50
2017,04,07,17,17,14.50
2017,04,07,17,18,24.20
2017,04,07,17,19,16.10
2017,04,07,17,20,12.90
2017,04,07,17,21,19.30
2017,04,07,17,22,24.20
2017,04,07,17,23,19.30
2017,04,07,17,24,20.90
2017,04,07,17,25,17.70
2017,04,07,17,26,20.90
2017,04,07,17,27,19.30
2017,04,07,17,28,12.90
2017,04,07,17,29,16.10
2017,04,07,17,30,12.90
2017,04,07,17,31,25.70
2017,04,07,17,32,24.20
2017,04,07,17,33,16.10
2017,04,07,17,34,19.30
2017,04,07,17,35,22.50
2017,04,07,17,36,16.10
2017,04,07,17,37,16.10
2017,04,07,17,38,22.50
2017,04,07,17,39,12.90
2017,04,07,17,40,4.80
2017,04,07,17,41,20.90
2017,04,07,17,42,14.50
2017,04,07,17,43,27.40
2017,04,07,17,44,27.40
2017,04,07,17,45,25.70
2017,04,07,17,46,16.10
2017,04,07,17,47,37.00
2017,04,07,17,48,25.70
2017,04,07,17,49,17.70
2017,04,07,17,50,11.30
2017,04,07,17,51,11.30
2017,04,07,17,52,14.50
2017,04,07,17,53,12.90
2017,04,07,17,54,19.30
2017,04,07,17,55,17.70
2017,04,07,17,56,12.90
2017,04,07,17,57,12.90
2017,04,07,17,58,19.30
2017,04,07,17,59,14.50
2017,04,07,18,00,11.30
2017,04,07,18,01,14.50
2017,04,07,18,02,17.70
2017,04,07,18,03,17.70
2017,04,07,18,04,17.70
2017,04,07,18,05,27.40
2017,04,07,18,06,27.40
2017,04,07,18,07,20.90
2017,04,07,18,08,19.30
2017,04,07,18,09,16.10
2017,04,07,18,10,22.50
2017,04,07,18,11,30.60
2017,04,07,18,12,19.30
2017,04,07,18,13,14.50
2017,04,07,18,14,20.90
2017,04,07,18,15,19.30
2017,04,07,18,16,12.90
2017,04,07,18,17,22.50
2017,04,07,18,18,12.90
2017,04,07,18,19,12.90
2017,04,07,18,20,16.10
2017,04,07,18,21,16.10
2017,04,07,18,22,30.60
2017,04,07,18,23,30.60
2017,04,07,18,24,12.90
2017,04,07,18,25,12.90
2017,04,07,18,26,22.50
2017,04,07,18,27,17.70
2017,04,07,18,28,17.70
2017,04,07,18,29,22.50
2017,04,07,18,30,19.30
2017,04,07,18,31,17.70
2017,04,07,18,32,11.30
2017,04,07,18,33,14.50
2017,04,07,18,34,25.70
2017,04,07,18,35,19.30
2017,04,07,18,36,11.30
2017,04,07,18,37,11.30
2017,04,07,18,38,14.50
2017,04,07,18,39,24.20
2017,04,07,18,40,20.90
2017,04,07,18,41,19.30
2017,04,07,18,42,22.50
2017,04,07,18,43,17.70
2017,04,07,18,44,19.30
2017,04,07,18,45,9.60
2017,04,07,18,46,8.10
2017,04,07,18,47,6.40
2017,04,07,18,48,12.90
2017,04,07,18,49,14.50
2017,04,07,18,50,16.10
2017,04,07,18,51,17.70
2017,04,07,18,52,12.90
2017,04,07,18,53,19.30
2017,04,07,18,54,12.90
2017,04,07,18,55,16.10
2017,04,07,18,56,19.30
2017,04,07,18,57,24.20
2017,04,07,18,58,22.50
2017,04,07,18,59,12.90
2017,04,07,19,00,30.60
2017,04,07,19,01,17.70
2017,04,07,19,02,16.10
2017,04,07,19,03,19.30
2017,04,07,19,04,19.30
2017,04,07,19,05,8.10
2017,04,07,19,06,16.10
2017,04,07,19,07,19.30
2017,04,07,19,08,30.60
2017,04,07,19,09,33.80
2017,04,07,19,10,9.60
2017,04,07,19,11,11.30
2017,04,07,19,12,14.50
2017,04,07,19,13,16.10
2017,04,07,19,14,27.40
2017,04,07,19,15,11.30
2017,04,07,19,16,9.60
2017,04,07,19,17,8.10
2017,04,07,19,18,12.90
2017,04,07,19,19,12.90
2017,04,07,19,20,33.80
2017,04,07,19,21,25.70
2017,04,07,19,22,14.50
2017,04,07,19,23,17.70
2017,04,07,19,24,12.90
2017,04,07,19,25,9.60
2017,04,07,19,26,14.50
2017,04,07,19,27,12.90
2017,04,07,19,28,30.60
2017,04,07,19,29,33.80
2017,04,07,19,30,22.50
2017,04,07,19,31,17.70
2017,04,07,19,32,14.50
2017,04,07,19,33,19.30
2017,04,07,19,34,38.60
2017,04,07,19,35,27.40
2017,04,07,19,36,22.50
2017,04,07,19,37,16.10
2017,04,07,19,38,19.30
2017,04,07,19,39,16.10
2017,04,07,19,40,30.60
2017,04,07,19,41,17.70
2017,04,07,19,42,17.70
2017,04,07,19,43,27.40
2017,04,07,19,44,24.20
2017,04,07,19,45,25.70
2017,04,07,19,46,9.60
2017,04,07,19,47,16.10
2017,04,07,19,48,9.60
2017,04,07,19,49,22.50
2017,04,07,19,50,16.10
2017,04,07,19,51,20.90
2017,04,07,19,52,14.50
2017,04,07,19,53,22.50
2017,04,07,19,54,16.10
2017,04,07,19,55,14.50
2017,04,07,19,56,17.70
2017,04,07,19,57,27.40
2017,04,07,19,58,27.40
2017,04,07,19,59,14.50
2017,04,07,20,00,22.50
2017,04,07,20,01,12.90
2017,04,07,20,02,29.00
2017,04,07,20,03,27.40
2017,04,07,20,04,14.50
2017,04,07,20,05,11.30
2017,04,07,20,06,14.50
2017,04,07,20,07,27.40
2017,04,07,20,08,14.50
2017,04,07,20,09,14.50
2017,04,07,20,10,11.30
2017,04,07,20,11,17.70
2017,04,07,20,12,17.70
2017,04,07,20,13,32.20
2017,04,07,20,14,24.20
2017,04,07,20,15,20.90
2017,04,07,20,16,20.90
2017,04,07,20,17,20.90
2017,04,07,20,18,11.30
2017,04,07,20,19,22.50
2017,04,07,20,20,27.40
2017,04,07,20,21,38.60
2017,04,07,20,22,29.00
2017,04,07,20,23,24.20
2017,04,07,20,24,19.30
2017,04,07,20,25,17.70
2017,04,07,20,26,22.50
2017,04,07,20,27,24.20
2017,04,07,20,28,12.90
2017,04,07,20,29,12.90
2017,04,07,20,30,19.30
2017,04,07,20,31,24.20
2017,04,07,20,32,16.10
2017,04,07,20,33,35.40
2017,04,07,20,34,29.00
2017,04,07,20,35,16.10
2017,04,07,20,36,32.20
2017,04,07,20,37,35.40
2017,04,07,20,38,27.40
2017,04,07,20,39,20.90
2017,04,07,20,40,29.00
2017,04,07,20,41,25.70
2017,04,07,20,42,20.90
2017,04,07,20,43,9.60
2017,04,07,20,44,12.90
2017,04,07,20,45,29.00
2017,04,07,20,46,16.10
2017,04,07,20,47,30.60
2017,04,07,20,48,27.40
2017,04,07,20,49,19.30
2017,04,07,20,50,38.60
2017,04,07,20,51,27.40
2017,04,07,20,52,40.20
2017,04,07,20,53,25.70
2017,04,07,20,54,20.90
2017,04,07,20,55,24.20
2017,04,07,20,56,14.50
2017,04,07,20,57,22.50
2017,04,07,20,58,30.60
2017,04,07,20,59,20.90
2017,04,07,21,00,16.10
2017,04,07,21,01,27.40
2017,04,07,21,02,29.00
2017,04,07,21,03,29.00
2017,04,07,21,04,19.30
2017,04,07,21,05,22.50
2017,04,07,21,06,29.00
2017,04,07,21,07,54.70
2017,04,07,21,08,20.90
2017,04,07,21,09,22.50
2017,04,07,21,10,27.40
2017,04,07,21,11,22.50
2017,04,07,21,12,19.30
2017,04,07,21,13,19.30
2017,04,07,21,14,29.00
2017,04,07,21,15,30.60
2017,04,07,21,16,43.50
2017,04,07,21,17,25.70
2017,04,07,21,18,22.50
2017,04,07,21,19,20.90
2017,04,07,21,20,14.50
2017,04,07,21,21,24.20
2017,04,07,21,22,30.60
2017,04,07,21,23,38.60
2017,04,07,21,24,38.60
2017,04,07,21,25,22.50
2017,04,07,21,26,16.10
2017,04,07,21,27,24.20
2017,04,07,21,28,29.00
2017,04,07,21,29,22.50
2017,04,07,21,30,20.90
2017,04,07,21,31,24.20
2017,04,07,21,32,25.70
2017,04,07,21,33,17.70
2017,04,07,21,34,33.80
2017,04,07,21,35,22.50
2017,04,07,21,36,20.90
2017,04,07,21,37,22.50
2017,04,07,21,38,20.90
2017,04,07,21,39,22.50
2017,04,07,21,40,24.20
2017,04,07,21,41,24.20
2017,04,07,21,42,22.50
2017,04,07,21,43,20.90
2017,04,07,21,44,19.30
2017,04,07,21,45,20.90
2017,04,07,21,46,24.20
2017,04,07,21,47,22.50
2017,04,07,21,48,27.40
2017,04,07,21,49,41.80
2017,04,07,21,50,20.90
2017,04,07,21,51,35.40
2017,04,07,21,52,11.30
2017,04,07,21,53,20.90
2017,04,07,21,54,17.70
2017,04,07,21,55,49.90
2017,04,07,21,56,38.60
2017,04,07,21,57,14.50
2017,04,07,21,58,20.90
2017,04,07,21,59,19.30
2017,04,07,22,00,32.20
2017,04,07,22,01,32.20
2017,04,07,22,02,20.90
2017,04,07,22,03,19.30
2017,04,07,22,04,24.20
2017,04,07,22,05,25.70
2017,04,07,22,06,27.40
2017,04,07,22,07,41.80
2017,04,07,22,08,24.20
2017,04,07,22,09,37.00
2017,04,07,22,10,53.10
2017,04,07,22,11,27.40
2017,04,07,22,12,27.40
2017,04,07,22,13,24.20
2017,04,07,22,14,29.00
2017,04,07,22,15,25.70
2017,04,07,22,16,41.80
2017,04,07,22,17,27.40
2017,04,07,22,18,12.90
2017,04,07,22,19,14.50
2017,04,07,22,20,17.70
2017,04,07,22,21,16.10
2017,04,07,22,22,24.20
2017,04,07,22,23,24.20
2017,04,07,22,24,29.00
2017,04,07,22,25,27.40
2017,04,07,22,26,29.00
2017,04,07,22,27,25.70
2017,04,07,22,28,17.70
2017,04,07,22,29,20.90
2017,04,07,22,30,29.00
2017,04,07,22,31,19.30
2017,04,07,22,32,29.00
2017,04,07,22,33,32.20
2017,04,07,22,34,32.20
2017,04,07,22,35,20.90
2017,04,07,22,36,37.00
2017,04,07,22,37,49.90
2017,04,07,22,38,35.40
2017,04,07,22,39,29.00
2017,04,07,22,40,20.90
2017,04,07,22,41,24.20
2017,04,07,22,42,20.90
2017,04,07,22,43,37.00
2017,04,07,22,44,46.70
2017,04,07,22,45,19.30
2017,04,07,22,46,16.10
2017,04,07,22,47,37.00
2017,04,07,22,48,32.20
2017,04,07,22,49,20.90
2017,04,07,22,50,22.50
2017,04,07,22,51,25.70
2017,04,07,22,52,14.50
2017,04,07,22,53,29.00
2017,04,07,22,54,17.70
2017,04,07,22,55,32.20
2017,04,07,22,56,27.40
2017,04,07,22,57,25.70
2017,04,07,22,58,27.40
2017,04,07,22,59,38.60
2017,04,07,23,00,40.20
2017,04,07,23,01,29.00
2017,04,07,23,02,17.70
2017,04,07,23,03,25.70
2017,04,07,23,04,22.50
2017,04,07,23,05,32.20
2017,04,07,23,06,27.40
2017,04,07,23,07,29.00
2017,04,07,23,08,14.50
2017,04,07,23,09,12.90
2017,04,07,23,10,24.20
2017,04,07,23,11,22.50
2017,04,07,23,12,12.90
2017,04,07,23,13,20.90
2017,04,07,23,14,25.70
2017,04,07,23,15,25.70
2017,04,07,23,16,20.90
2017,04,07,23,17,25.70
2017,04,07,23,18,29.00
2017,04,07,23,19,27.40